SPORT

Last updated on Tue Oct 10 2023 00:02:07 GMT+0000 (Coordinated Universal Time)

1 55129U 98067UW 23281.94960164 .04985629 12232-4 76817-3 0 9996 2 55129 51.6113 85.1824 0009396 288.4088 71.5914 16.33130914 44561

Satellite not in orbit